| time (UTC) | temp F | wind direction | speed MPH | gust MPH | rain 1hr in | rain 24hr in | rain mn in | humidity % | barometer mb |
| 20260901075010 | 63 | 271 | 0.0 | 0.0 | 0.00 | 0.00 | 0.00 | 92 | 1018.0 |
| 20260901074512 | 63 | 271 | 0.0 | 0.0 | 0.00 | 0.00 | 0.00 | 92 | 1017.9 |
| 20260901074010 | 63 | 271 | 0.0 | 0.0 | 0.00 | 0.00 | 0.00 | 92 | 1017.9 |
| 20260901073513 | 63 | 271 | 0.0 | 0.0 | 0.00 | 0.00 | 0.00 | 92 | 1018.1 |
| 20260901073023 | 63 | 271 | 0.0 | 0.0 | 0.00 | 0.00 | 0.00 | 92 | 1018.0 |
| 20260901072514 | 63 | 271 | 0.0 | 0.0 | 0.00 | 0.00 | 0.00 | 92 | 1018.0 |
| 20260901072015 | 63 | 271 | 0.0 | 0.0 | 0.00 | 0.00 | 0.00 | 92 | 1018.0 |
| 20260901071529 | 63 | 271 | 0.0 | 0.0 | 0.00 | 0.00 | 0.00 | 92 | 1018.1 |
| 20260901071019 | 63 | 271 | 0.0 | 0.0 | 0.00 | 0.00 | 0.00 | 92 | 1018.1 |
| 20260901070516 | 63 | 271 | 0.0 | 0.0 | 0.00 | 0.00 | 0.00 | 92 | 1018.1 |
| 20260901070033 | 63 | 271 | 0.0 | 0.0 | 0.00 | 0.00 | 0.00 | 92 | 1018.3 |
| 20260901065519 | 63 | 271 | 0.0 | 0.0 | 0.00 | 0.00 | 0.00 | 92 | 1018.4 |
| 20260901065015 | 63 | 271 | 0.0 | 0.0 | 0.00 | 0.00 | 0.00 | 92 | 1018.4 |
| 20260901064537 | 63 | 271 | 0.0 | 0.0 | 0.00 | 0.00 | 0.00 | 92 | 1018.4 |
| 20260901064017 | 63 | 271 | 0.0 | 0.0 | 0.00 | 0.00 | 0.00 | 91 | 1018.3 |
| 20260901063511 | 63 | 271 | 0.0 | 0.0 | 0.00 | 0.00 | 0.00 | 91 | 1018.3 |
| 20260901063016 | 63 | 271 | 0.0 | 0.0 | 0.00 | 0.00 | 0.00 | 91 | 1018.3 |
| 20260901062512 | 63 | 271 | 0.0 | 0.0 | 0.00 | 0.00 | 0.00 | 91 | 1018.3 |
| 20260901062012 | 63 | 271 | 0.0 | 0.0 | 0.00 | 0.00 | 0.00 | 91 | 1018.3 |
| 20260901061526 | 63 | 271 | 0.0 | 0.0 | 0.00 | 0.00 | 0.00 | 91 | 1018.4 |
| 20260901061014 | 63 | 271 | 0.0 | 0.0 | 0.00 | 0.00 | 0.00 | 91 | 1018.5 |
| 20260901060514 | 63 | 271 | 0.0 | 0.0 | 0.00 | 0.00 | 0.00 | 91 | 1018.5 |
| 20260901060029 | 63 | 271 | 0.0 | 0.0 | 0.00 | 0.00 | 0.00 | 90 | 1018.6 |
| 20260901055515 | 62 | 271 | 0.0 | 0.0 | 0.00 | 0.00 | 0.00 | 90 | 1018.6 |
| 20260901055015 | 62 | 271 | 0.0 | 0.0 | 0.00 | 0.00 | 0.00 | 90 | 1018.5 |
| 20260901054530 | 62 | 271 | 0.0 | 0.0 | 0.00 | 0.00 | 0.00 | 90 | 1018.5 |
| 20260901054016 | 62 | 271 | 0.0 | 0.0 | 0.00 | 0.00 | 0.00 | 90 | 1018.5 |
| 20260901053520 | 63 | 271 | 0.0 | 0.0 | 0.00 | 0.00 | 0.00 | 89 | 1018.5 |
| 20260901053037 | 63 | 271 | 0.0 | 0.0 | 0.00 | 0.00 | 0.00 | 89 | 1018.5 |
| 20260901052515 | 63 | 271 | 0.0 | 0.0 | 0.00 | 0.00 | 0.00 | 89 | 1018.6 |
| 20260901052011 | 63 | 271 | 0.0 | 0.0 | 0.00 | 0.00 | 0.00 | 89 | 1018.6 |
| 20260901051517 | 63 | 271 | 0.0 | 0.0 | 0.00 | 0.00 | 0.00 | 89 | 1018.7 |
| 20260901051016 | 63 | 271 | 0.0 | 0.0 | 0.00 | 0.01 | 0.00 | 89 | 1018.7 |
| 20260901050504 | 63 | 271 | 0.0 | 0.0 | 0.00 | 0.02 | 0.00 | 88 | 1018.8 |
| 20260901050004 | 63 | 271 | 0.0 | 0.0 | 0.00 | 0.05 | 0.00 | 88 | 1018.8 |
| 20260901045504 | 63 | 271 | 0.0 | 0.0 | 0.00 | 0.10 | 0.00 | 87 | 1018.8 |
| 20260901045004 | 63 | 271 | 0.0 | 0.0 | 0.00 | 0.14 | 0.00 | 87 | 1018.8 |
| 20260901044507 | 63 | 271 | 0.0 | 0.0 | 0.00 | 0.19 | 0.00 | 88 | 1018.8 |
| 20260901044007 | 63 | 271 | 0.0 | 0.0 | 0.00 | 0.21 | 0.00 | 88 | 1018.9 |
| 20260901043503 | 63 | 271 | 0.0 | 0.0 | 0.00 | 0.22 | 0.00 | 87 | 1019.0 |
| 20260901043010 | 63 | 271 | 0.0 | 0.0 | 0.00 | 0.24 | 0.00 | 87 | 1019.0 |
| 20260901042509 | 63 | 271 | 0.0 | 0.0 | 0.00 | 0.24 | 0.00 | 88 | 1019.0 |
| 20260901042009 | 63 | 271 | 0.0 | 0.0 | 0.00 | 0.26 | 0.00 | 87 | 1019.1 |
| 20260901041515 | 63 | 271 | 0.0 | 0.0 | 0.00 | 0.27 | 0.00 | 87 | 1018.9 |
| 20260901041015 | 63 | 271 | 0.0 | 0.0 | 0.00 | 0.28 | 0.00 | 87 | 1018.9 |
| 20260901040514 | 63 | 271 | 0.0 | 0.0 | 0.00 | 0.29 | 0.00 | 87 | 1018.8 |
| 20260901040028 | 63 | 271 | 0.0 | 0.0 | 0.00 | 0.30 | 0.00 | 86 | 1018.9 |
| 20260901035521 | 64 | 271 | 0.0 | 0.0 | 0.00 | 0.31 | 0.30 | 86 | 1019.1 |
| 20260901035003 | 64 | 271 | 0.0 | 0.0 | 0.00 | 0.32 | 0.30 | 86 | 1019.1 |
| 20260901034509 | 64 | 271 | 0.0 | 0.0 | 0.00 | 0.33 | 0.30 | 87 | 1019.2 |
| 20260901034003 | 64 | 271 | 0.0 | 0.0 | 0.00 | 0.33 | 0.30 | 87 | 1019.1 |
| 20260901033505 | 64 | 271 | 0.0 | 0.0 | 0.00 | 0.34 | 0.30 | 87 | 1019.1 |
| 20260901033016 | 64 | 271 | 0.0 | 0.0 | 0.00 | 0.35 | 0.30 | 86 | 1019.1 |
| 20260901032508 | 64 | 271 | 0.0 | 0.0 | 0.00 | 0.36 | 0.30 | 87 | 1019.1 |
| 20260901032009 | 64 | 271 | 0.0 | 0.0 | 0.00 | 0.37 | 0.30 | 87 | 1019.1 |
| 20260901031514 | 64 | 271 | 0.0 | 0.0 | 0.00 | 0.37 | 0.30 | 86 | 1019.1 |
| 20260901031011 | 64 | 271 | 0.0 | 0.0 | 0.00 | 0.38 | 0.30 | 87 | 1019.2 |
| 20260901030514 | 64 | 271 | 0.0 | 0.0 | 0.00 | 0.39 | 0.30 | 87 | 1019.2 |
| 20260901030022 | 64 | 271 | 0.0 | 0.0 | 0.00 | 0.40 | 0.30 | 87 | 1019.1 |
| 20260901025512 | 65 | 271 | 0.0 | 0.0 | 0.00 | 0.41 | 0.30 | 88 | 1019.2 |
| 20260901025014 | 65 | 271 | 0.0 | 0.0 | 0.00 | 0.41 | 0.30 | 88 | 1019.1 |
| 20260901024527 | 65 | 271 | 0.0 | 0.0 | 0.00 | 0.41 | 0.30 | 88 | 1019.1 |
| 20260901024017 | 65 | 271 | 0.0 | 0.0 | 0.00 | 0.41 | 0.30 | 88 | 1019.3 |
| 20260901023503 | 65 | 271 | 0.0 | 0.0 | 0.00 | 0.41 | 0.30 | 88 | 1019.3 |
| 20260901023003 | 65 | 271 | 0.0 | 0.0 | 0.00 | 0.41 | 0.30 | 89 | 1019.3 |
| 20260901022506 | 65 | 271 | 0.0 | 0.0 | 0.00 | 0.41 | 0.30 | 88 | 1019.3 |
| 20260901022008 | 65 | 271 | 0.0 | 0.0 | 0.00 | 0.41 | 0.30 | 88 | 1019.3 |
| 20260901021510 | 65 | 271 | 0.0 | 0.0 | 0.00 | 0.41 | 0.30 | 88 | 1019.3 |
| 20260901021010 | 65 | 271 | 0.0 | 0.0 | 0.00 | 0.41 | 0.30 | 88 | 1019.3 |
| 20260901020507 | 65 | 271 | 0.0 | 0.0 | 0.00 | 0.41 | 0.30 | 88 | 1019.3 |
| 20260901020016 | 65 | 271 | 0.0 | 0.0 | 0.00 | 0.41 | 0.30 | 89 | 1019.3 |
| 20260901015512 | 65 | 271 | 0.0 | 0.0 | 0.00 | 0.41 | 0.30 | 88 | 1019.3 |
| 20260901015013 | 65 | 271 | 0.0 | 0.0 | 0.00 | 0.41 | 0.30 | 88 | 1019.2 |
| 20260901014525 | 65 | 271 | 0.0 | 0.0 | 0.00 | 0.41 | 0.30 | 88 | 1019.2 |
| 20260901014014 | 65 | 271 | 0.0 | 0.0 | 0.00 | 0.41 | 0.30 | 88 | 1019.1 |
| 20260901013516 | 65 | 271 | 0.0 | 0.0 | 0.00 | 0.41 | 0.30 | 88 | 1019.2 |
| 20260901013027 | 65 | 271 | 0.0 | 0.0 | 0.00 | 0.41 | 0.30 | 89 | 1019.2 |
| 20260901012513 | 65 | 271 | 0.0 | 0.0 | 0.00 | 0.41 | 0.30 | 89 | 1019.2 |
| 20260901012004 | 65 | 271 | 0.0 | 0.0 | 0.00 | 0.41 | 0.30 | 89 | 1019.3 |
| 20260901011507 | 65 | 271 | 0.0 | 0.0 | 0.00 | 0.41 | 0.30 | 89 | 1019.3 |
| 20260901011007 | 65 | 271 | 0.0 | 0.0 | 0.00 | 0.41 | 0.30 | 89 | 1019.3 |
| 20260901010507 | 65 | 271 | 0.0 | 0.0 | 0.00 | 0.41 | 0.30 | 89 | 1019.3 |
| 20260901010014 | 65 | 271 | 0.0 | 0.0 | 0.00 | 0.41 | 0.30 | 1019.3 | |
| 20260901005512 | 65 | 271 | 0.0 | 0.0 | 0.00 | 0.41 | 0.30 | 89 | 1019.3 |
| 20260901005016 | 65 | 271 | 0.0 | 0.0 | 0.00 | 0.41 | 0.30 | 89 | 1019.3 |
| 20260901004526 | 65 | 271 | 0.0 | 0.0 | 0.00 | 0.41 | 0.30 | 89 | 1019.3 |
| 20260901004014 | 65 | 271 | 0.0 | 0.0 | 0.00 | 0.41 | 0.30 | 89 | 1019.4 |
| 20260901003516 | 65 | 271 | 0.0 | 0.0 | 0.00 | 0.41 | 0.30 | 89 | 1019.4 |
| 20260901003026 | 65 | 271 | 0.0 | 0.0 | 0.00 | 0.41 | 0.30 | 89 | 1019.5 |
| 20260901002520 | 65 | 271 | 0.0 | 0.0 | 0.00 | 0.41 | 0.30 | 89 | 1019.5 |
| 20260901002016 | 65 | 271 | 0.0 | 0.0 | 0.00 | 0.41 | 0.30 | 89 | 1019.5 |
| 20260901001533 | 65 | 271 | 0.0 | 0.0 | 0.00 | 0.41 | 0.30 | 89 | 1019.4 |
| 20260901001017 | 65 | 271 | 0.0 | 0.0 | 0.00 | 0.41 | 0.30 | 1019.4 | |
| 20260901000508 | 65 | 271 | 0.0 | 0.0 | 0.00 | 0.41 | 0.30 | 88 | 1019.5 |
| 20260901000012 | 65 | 271 | 0.0 | 0.0 | 0.00 | 0.41 | 0.30 | 88 | 1019.5 |
| 20260831235508 | 65 | 271 | 0.0 | 0.0 | 0.00 | 0.41 | 0.30 | 88 | 1019.5 |
| 20260831235011 | 65 | 271 | 0.0 | 0.0 | 0.00 | 0.41 | 0.30 | 88 | 1019.5 |
| 20260831234532 | 65 | 271 | 0.0 | 0.0 | 0.00 | 0.41 | 0.30 | 87 | 1019.4 |
| 20260831234012 | 66 | 271 | 0.0 | 0.0 | 0.00 | 0.41 | 0.30 | 87 | 1019.3 |
| 20260831233515 | 66 | 271 | 0.0 | 0.0 | 0.00 | 0.41 | 0.30 | 87 | 1019.3 |
| 20260831233023 | 66 | 271 | 0.0 | 0.0 | 0.00 | 0.41 | 0.30 | 87 | 1019.3 |
| 20260831232512 | 66 | 271 | 0.0 | 0.0 | 0.00 | 0.41 | 0.30 | 85 | 1019.4 |
| 20260831232014 | 66 | 271 | 0.0 | 0.0 | 0.00 | 0.41 | 0.30 | 85 | 1019.4 |
| 20260831231528 | 66 | 271 | 0.0 | 0.0 | 0.00 | 0.41 | 0.30 | 85 | 1019.4 |
| 20260831231019 | 66 | 271 | 0.0 | 0.0 | 0.00 | 0.41 | 0.30 | 86 | 1019.5 |
| 20260831230519 | 67 | 271 | 0.0 | 0.0 | 0.00 | 0.41 | 0.30 | 85 | 1019.6 |
| 20260831230032 | 67 | 271 | 0.0 | 0.0 | 0.00 | 0.41 | 0.30 | 84 | 1019.5 |
| 20260831225517 | 67 | 271 | 0.0 | 0.0 | 0.00 | 0.41 | 0.30 | 84 | 1019.5 |
| 20260831225008 | 67 | 271 | 0.0 | 0.0 | 0.00 | 0.41 | 0.30 | 84 | 1019.6 |
| 20260831224512 | 67 | 271 | 0.0 | 0.0 | 0.00 | 0.41 | 0.30 | 84 | 1019.6 |
| 20260831224010 | 67 | 271 | 0.0 | 0.0 | 0.00 | 0.41 | 0.30 | 83 | 1019.6 |
| 20260831223512 | 67 | 271 | 0.0 | 0.0 | 0.00 | 0.41 | 0.30 | 83 | 1019.5 |
| 20260831223022 | 67 | 271 | 0.0 | 0.0 | 0.00 | 0.41 | 0.30 | 83 | 1019.6 |
| 20260831222512 | 67 | 271 | 0.0 | 0.0 | 0.00 | 0.41 | 0.30 | 83 | 1019.6 |
| 20260831222015 | 68 | 271 | 0.0 | 0.0 | 0.00 | 0.41 | 0.30 | 82 | 1019.7 |
| 20260831221529 | 68 | 271 | 0.0 | 0.0 | 0.00 | 0.41 | 0.30 | 82 | 1019.6 |
| 20260831221014 | 68 | 271 | 0.0 | 0.0 | 0.00 | 0.41 | 0.30 | 81 | 1019.6 |
| 20260831220515 | 68 | 271 | 0.0 | 0.0 | 0.00 | 0.41 | 0.30 | 79 | 1019.7 |
| 20260831220031 | 68 | 271 | 0.0 | 0.0 | 0.00 | 0.41 | 0.30 | 79 | 1019.8 |
| 20260831215517 | 68 | 271 | 0.0 | 0.0 | 0.00 | 0.41 | 0.30 | 80 | 1019.7 |
| 20260831215018 | 69 | 271 | 0.0 | 0.0 | 0.00 | 0.41 | 0.30 | 81 | 1019.7 |
| 20260831214540 | 69 | 271 | 0.0 | 0.0 | 0.00 | 0.41 | 0.30 | 78 | 1019.8 |
| 20260831214006 | 69 | 241 | 0.0 | 0.0 | 0.00 | 0.41 | 0.30 | 78 | 1019.8 |
| 20260831213508 | 69 | 274 | 0.0 | 0.0 | 0.00 | 0.41 | 0.30 | 78 | 1019.7 |
| 20260831213031 | 69 | 276 | 0.0 | 0.0 | 0.00 | 0.41 | 0.30 | 78 | 1019.6 |
| 20260831212513 | 69 | 271 | 0.0 | 0.0 | 0.00 | 0.41 | 0.30 | 79 | 1019.6 |
| 20260831212014 | 69 | 262 | 0.0 | 0.0 | 0.00 | 0.41 | 0.30 | 78 | 1019.7 |
| 20260831211523 | 69 | 270 | 0.0 | 0.0 | 0.00 | 0.41 | 0.30 | 78 | 1019.6 |
| 20260831211013 | 70 | 243 | 0.0 | 0.0 | 0.00 | 0.41 | 0.30 | 77 | 1019.5 |
| 20260831210515 | 70 | 304 | 0.0 | 0.0 | 0.00 | 0.41 | 0.30 | 79 | 1019.5 |
| 20260831210026 | 70 | 273 | 0.0 | 0.0 | 0.00 | 0.41 | 0.30 | 79 | 1019.5 |
| 20260831205517 | 70 | 284 | 0.0 | 0.0 | 0.00 | 0.41 | 0.30 | 78 | 1019.5 |
| 20260831205019 | 70 | 257 | 0.0 | 0.0 | 0.00 | 0.41 | 0.30 | 78 | 1019.5 |
| 20260831204531 | 71 | 256 | 0.0 | 0.0 | 0.00 | 0.41 | 0.30 | 77 | 1019.7 |
| 20260831204018 | 71 | 269 | 0.0 | 0.0 | 0.00 | 0.41 | 0.30 | 78 | 1019.6 |
| 20260831203517 | 71 | 356 | 0.0 | 0.0 | 0.00 | 0.41 | 0.30 | 79 | 1019.6 |
| 20260831203052 | 71 | 336 | 0.0 | 0.0 | 0.00 | 0.41 | 0.30 | 77 | 1019.6 |
| 20260831202508 | 71 | 5 | 0.0 | 0.0 | 0.00 | 0.41 | 0.30 | 78 | 1019.6 |
| 20260831202004 | 71 | 8 | 0.0 | 0.0 | 0.00 | 0.41 | 0.30 | 75 | 1019.6 |
| 20260831201506 | 71 | 330 | 0.0 | 0.0 | 0.00 | 0.41 | 0.30 | 74 | 1019.5 |
| 20260831201006 | 71 | 330 | 0.0 | 0.0 | 0.00 | 0.41 | 0.30 | 73 | 1019.6 |
| 20260831200503 | 71 | 271 | 0.0 | 0.0 | 0.00 | 0.41 | 0.30 | 73 | 1019.7 |
| 20260831200003 | 71 | 329 | 0.0 | 0.0 | 0.00 | 0.41 | 0.30 | 72 | 1019.7 |
| 20260831195503 | 71 | 329 | 0.0 | 0.0 | 0.00 | 0.41 | 0.30 | 72 | 1019.7 |
| 20260831195004 | 70 | 344 | 0.0 | 0.0 | 0.00 | 0.41 | 0.30 | 71 | 1019.7 |
| 20260831194505 | 71 | 285 | 0.0 | 0.0 | 0.00 | 0.41 | 0.30 | 75 | 1019.7 |
| 20260831194004 | 71 | 285 | 0.0 | 0.0 | 0.00 | 0.41 | 0.30 | 76 | 1019.8 |
| 20260831193503 | 71 | 285 | 0.0 | 0.0 | 0.00 | 0.41 | 0.30 | 75 | 1019.7 |
| 20260831193005 | 71 | 285 | 0.0 | 0.0 | 0.00 | 0.41 | 0.30 | 72 | 1019.8 |
| 20260831192504 | 71 | 285 | 0.0 | 0.0 | 0.00 | 0.41 | 0.30 | 72 | 1019.9 |
| 20260831192005 | 71 | 285 | 0.0 | 0.0 | 0.00 | 0.41 | 0.30 | 68 | 1020.1 |
| 20260831191505 | 71 | 278 | 0.0 | 0.0 | 0.00 | 0.41 | 0.30 | 70 | 1020.1 |
| 20260831191005 | 72 | 278 | 0.0 | 0.0 | 0.00 | 0.41 | 0.30 | 69 | 1020.0 |
| 20260831190505 | 72 | 276 | 0.0 | 0.0 | 0.00 | 0.41 | 0.30 | 71 | 1020.0 |
| 20260831190009 | 72 | 278 | 0.0 | 0.0 | 0.00 | 0.41 | 0.30 | 74 | 1020.1 |
| 20260831185504 | 71 | 278 | 0.0 | 0.0 | 0.00 | 0.41 | 0.30 | 68 | 1020.2 |
| 20260831185003 | 71 | 286 | 0.0 | 0.0 | 0.00 | 0.41 | 0.30 | 73 | 1020.2 |
| 20260831184503 | 71 | 286 | 0.0 | 0.0 | 0.00 | 0.41 | 0.30 | 74 | 1020.2 |
| 20260831184004 | 72 | 288 | 0.0 | 0.0 | 0.00 | 0.41 | 0.30 | 72 | 1020.0 |
| 20260831183504 | 72 | 333 | 0.0 | 0.0 | 0.00 | 0.41 | 0.30 | 74 | 1020.0 |
| 20260831183007 | 72 | 333 | 0.0 | 0.0 | 0.00 | 0.41 | 0.30 | 72 | 1020.2 |
| 20260831182504 | 73 | 333 | 0.0 | 0.0 | 0.00 | 0.41 | 0.30 | 71 | 1020.2 |
| 20260831182004 | 73 | 333 | 0.0 | 0.0 | 0.00 | 0.41 | 0.30 | 67 | 1020.1 |
| 20260831181508 | 73 | 333 | 0.0 | 0.0 | 0.00 | 0.41 | 0.30 | 65 | 1020.1 |
| 20260831181006 | 72 | 333 | 0.0 | 0.0 | 0.00 | 0.41 | 0.30 | 68 | 1020.2 |
| 20260831180505 | 72 | 333 | 0.0 | 0.0 | 0.00 | 0.41 | 0.30 | 65 | 1020.1 |
| 20260831180010 | 72 | 333 | 0.0 | 0.0 | 0.00 | 0.41 | 0.30 | 66 | 1020.1 |
| 20260831175506 | 72 | 333 | 0.0 | 0.0 | 0.00 | 0.41 | 0.30 | 64 | 1020.2 |
| 20260831175006 | 73 | 333 | 0.0 | 0.0 | 0.00 | 0.41 | 0.30 | 67 | 1020.1 |
| 20260831174510 | 73 | 333 | 0.0 | 0.0 | 0.00 | 0.41 | 0.30 | 66 | 1020.0 |
| 20260831174006 | 73 | 333 | 0.0 | 0.0 | 0.00 | 0.41 | 0.30 | 65 | 1020.0 |
| 20260831173504 | 73 | 38 | 0.0 | 0.0 | 0.00 | 0.41 | 0.30 | 63 | 1020.0 |
| 20260831173004 | 73 | 308 | 0.0 | 0.0 | 0.00 | 0.41 | 0.30 | 64 | 1020.0 |
| 20260831172504 | 73 | 308 | 0.0 | 0.0 | 0.00 | 0.41 | 0.30 | 66 | 1020.2 |
| 20260831172006 | 73 | 308 | 0.0 | 0.0 | 0.00 | 0.41 | 0.30 | 64 | 1020.2 |
| 20260831171509 | 72 | 308 | 0.0 | 0.0 | 0.00 | 0.41 | 0.30 | 64 | 1020.2 |
| 20260831171005 | 72 | 302 | 0.0 | 0.0 | 0.00 | 0.41 | 0.30 | 63 | 1020.3 |
| 20260831170505 | 72 | 302 | 0.0 | 0.0 | 0.00 | 0.41 | 0.30 | 63 | 1020.4 |
| 20260831170012 | 73 | 302 | 0.0 | 0.0 | 0.00 | 0.41 | 0.30 | 63 | 1020.4 |
| 20260831165509 | 73 | 348 | 0.0 | 0.0 | 0.00 | 0.41 | 0.30 | 63 | 1020.4 |
| 20260831165006 | 73 | 350 | 0.0 | 0.0 | 0.00 | 0.41 | 0.30 | 65 | 1020.4 |
| 20260831164512 | 73 | 293 | 0.0 | 0.0 | 0.00 | 0.41 | 0.30 | 67 | 1020.4 |
| 20260831164008 | 73 | 300 | 0.0 | 0.0 | 0.00 | 0.41 | 0.30 | 61 | 1020.4 |
| 20260831163508 | 74 | 298 | 0.0 | 0.0 | 0.00 | 0.41 | 0.30 | 62 | 1020.4 |
| 20260831163012 | 73 | 298 | 0.0 | 0.0 | 0.00 | 0.41 | 0.30 | 65 | 1020.3 |
| 20260831162510 | 73 | 294 | 0.0 | 0.0 | 0.00 | 0.41 | 0.30 | 67 | 1020.4 |
| 20260831162004 | 73 | 283 | 0.0 | 0.0 | 0.00 | 0.41 | 0.30 | 68 | 1020.4 |
| 20260831161511 | 73 | 224 | 0.0 | 0.0 | 0.00 | 0.41 | 0.30 | 69 | 1020.4 |
| 20260831161006 | 73 | 269 | 0.0 | 0.0 | 0.00 | 0.41 | 0.30 | 73 | 1020.5 |
| 20260831160509 | 73 | 33 | 0.0 | 0.0 | 0.00 | 0.41 | 0.30 | 67 | 1020.4 |
| 20260831160027 | 73 | 286 | 0.0 | 0.0 | 0.00 | 0.41 | 0.30 | 67 | 1020.4 |
| 20260831155508 | 73 | 285 | 0.0 | 0.0 | 0.00 | 0.41 | 0.30 | 68 | 1020.5 |
| 20260831155006 | 73 | 47 | 0.0 | 0.0 | 0.00 | 0.41 | 0.30 | 68 | 1020.5 |
| 20260831154538 | 72 | 284 | 0.0 | 0.0 | 0.00 | 0.41 | 0.30 | 71 | 1020.6 |
| 20260831154008 | 73 | 270 | 0.0 | 0.0 | 0.00 | 0.41 | 0.30 | 71 | 1020.8 |
| 20260831153511 | 72 | 285 | 0.0 | 0.0 | 0.00 | 0.41 | 0.30 | 71 | 1020.9 |
| 20260831153032 | 72 | 13 | 0.0 | 0.0 | 0.00 | 0.41 | 0.30 | 71 | 1021.0 |
| 20260831152509 | 72 | 328 | 0.0 | 0.0 | 0.00 | 0.41 | 0.30 | 75 | 1020.9 |
| 20260831152013 | 72 | 285 | 0.0 | 0.0 | 0.00 | 0.41 | 0.30 | 73 | 1021.0 |
| 20260831151514 | 72 | 314 | 0.0 | 0.0 | 0.00 | 0.41 | 0.30 | 76 | 1020.9 |
| 20260831151006 | 72 | 75 | 0.0 | 0.0 | 0.00 | 0.41 | 0.30 | 72 | 1020.9 |
| 20260831150506 | 71 | 171 | 0.0 | 0.0 | 0.00 | 0.41 | 0.30 | 80 | 1020.9 |
| 20260831150012 | 71 | 307 | 0.0 | 0.0 | 0.00 | 0.41 | 0.30 | 80 | 1020.9 |
| 20260831145506 | 71 | 307 | 0.0 | 0.0 | 0.00 | 0.41 | 0.30 | 82 | 1020.8 |
| 20260831145010 | 71 | 307 | 0.0 | 0.0 | 0.00 | 0.41 | 0.30 | 82 | 1020.8 |
| 20260831144515 | 70 | 341 | 0.0 | 0.0 | 0.00 | 0.41 | 0.30 | 76 | 1020.9 |
| 20260831144010 | 70 | 34 | 0.0 | 0.0 | 0.00 | 0.41 | 0.30 | 79 | 1020.9 |
| 20260831143510 | 70 | 1 | 0.0 | 0.0 | 0.00 | 0.41 | 0.30 | 80 | 1020.8 |
| 20260831143014 | 69 | 298 | 0.0 | 0.0 | 0.00 | 0.41 | 0.30 | 82 | 1020.8 |
| 20260831142512 | 69 | 347 | 0.0 | 0.0 | 0.00 | 0.41 | 0.30 | 82 | 1020.7 |
| 20260831142010 | 68 | 328 | 0.0 | 0.0 | 0.00 | 0.41 | 0.30 | 84 | 1020.6 |
| 20260831141519 | 68 | 341 | 0.0 | 0.0 | 0.00 | 0.41 | 0.30 | 85 | 1020.6 |
| 20260831141009 | 67 | 266 | 0.0 | 0.0 | 0.00 | 0.41 | 0.30 | 88 | 1020.5 |
| 20260831140511 | 67 | 339 | 0.0 | 0.0 | 0.00 | 0.41 | 0.30 | 87 | 1020.5 |
| 20260831140018 | 66 | 224 | 0.0 | 0.0 | 0.00 | 0.41 | 0.30 | 88 | 1020.5 |
| 20260831135508 | 66 | 221 | 0.0 | 0.0 | 0.00 | 0.41 | 0.30 | 88 | 1020.4 |
| 20260831135008 | 66 | 3 | 0.0 | 0.0 | 0.00 | 0.41 | 0.30 | 90 | 1020.4 |
| 20260831134514 | 65 | 2 | 0.0 | 0.0 | 0.00 | 0.41 | 0.30 | 1020.3 | |
| 20260831134008 | 65 | 334 | 0.0 | 0.0 | 0.00 | 0.41 | 0.30 | 1020.3 | |
| 20260831133509 | 65 | 332 | 0.0 | 0.0 | 0.00 | 0.41 | 0.30 | 1020.2 | |
| 20260831133018 | 65 | 359 | 0.0 | 0.0 | 0.00 | 0.41 | 0.30 | 1020.1 | |
| 20260831132514 | 65 | 29 | 0.0 | 0.0 | 0.00 | 0.41 | 0.30 | 94 | 1020.0 |
| 20260831132012 | 65 | 240 | 0.0 | 0.0 | 0.00 | 0.41 | 0.30 | 94 | 1020.1 |
| 20260831131522 | 64 | 238 | 0.0 | 0.0 | 0.00 | 0.41 | 0.30 | 94 | 1020.1 |
| 20260831131011 | 64 | 240 | 0.0 | 0.0 | 0.00 | 0.41 | 0.30 | 95 | 1020.1 |
| 20260831130511 | 64 | 241 | 0.0 | 0.0 | 0.00 | 0.41 | 0.30 | 94 | 1020.1 |
| 20260831130017 | 64 | 240 | 0.0 | 0.0 | 0.00 | 0.41 | 0.30 | 95 | 1020.2 |
| 20260831125516 | 64 | 238 | 0.0 | 0.0 | 0.00 | 0.41 | 0.30 | 95 | 1020.2 |
| 20260831125011 | 64 | 203 | 0.0 | 0.0 | 0.00 | 0.41 | 0.30 | 95 | 1020.2 |
| 20260831124520 | 64 | 203 | 0.0 | 0.0 | 0.00 | 0.41 | 0.30 | 95 | 1020.2 |
| 20260831124010 | 64 | 203 | 0.0 | 0.0 | 0.00 | 0.41 | 0.30 | 95 | 1020.2 |
| 20260831123510 | 64 | 203 | 0.0 | 0.0 | 0.00 | 0.41 | 0.30 | 95 | 1020.1 |
| 20260831123026 | 64 | 203 | 0.0 | 0.0 | 0.00 | 0.41 | 0.30 | 95 | 1020.0 |
| 20260831122516 | 64 | 203 | 0.0 | 0.0 | 0.00 | 0.41 | 0.30 | 95 | 1020.1 |
| 20260831122013 | 64 | 203 | 0.0 | 0.0 | 0.00 | 0.41 | 0.30 | 95 | 1020.0 |
| 20260831121529 | 64 | 203 | 0.0 | 0.0 | 0.00 | 0.41 | 0.30 | 95 | 1020.0 |
| 20260831121018 | 64 | 203 | 0.0 | 0.0 | 0.00 | 0.41 | 0.30 | 95 | 1020.0 |
| 20260831120512 | 64 | 203 | 0.0 | 0.0 | 0.00 | 0.41 | 0.30 | 95 | 1020.1 |
| 20260831120033 | 64 | 203 | 0.0 | 0.0 | 0.00 | 0.41 | 0.30 | 95 | 1020.2 |
| 20260831115516 | 64 | 203 | 0.0 | 0.0 | 0.00 | 0.41 | 0.30 | 95 | 1020.0 |
| 20260831115016 | 64 | 203 | 0.0 | 0.0 | 0.00 | 0.41 | 0.30 | 95 | 1019.9 |
| 20260831114529 | 64 | 203 | 0.0 | 0.0 | 0.00 | 0.41 | 0.30 | 95 | 1019.8 |
| 20260831114015 | 64 | 203 | 0.0 | 0.0 | 0.00 | 0.41 | 0.30 | 95 | 1019.8 |
| 20260831113516 | 64 | 203 | 0.0 | 0.0 | 0.00 | 0.41 | 0.30 | 95 | 1019.8 |
| 20260831113025 | 64 | 203 | 0.0 | 0.0 | 0.00 | 0.41 | 0.30 | 95 | 1019.8 |
| 20260831112511 | 64 | 203 | 0.0 | 0.0 | 0.00 | 0.41 | 0.30 | 95 | 1019.8 |
| 20260831112012 | 64 | 203 | 0.0 | 0.0 | 0.00 | 0.41 | 0.30 | 95 | 1019.8 |
| 20260831111521 | 64 | 203 | 0.0 | 0.0 | 0.00 | 0.41 | 0.30 | 95 | 1019.6 |
| 20260831111003 | 64 | 203 | 0.0 | 0.0 | 0.00 | 0.41 | 0.30 | 95 | 1019.5 |
| 20260831110503 | 64 | 203 | 0.0 | 0.0 | 0.00 | 0.41 | 0.30 | 95 | 1019.5 |
| 20260831110004 | 64 | 203 | 0.0 | 0.0 | 0.00 | 0.41 | 0.30 | 95 | 1019.4 |
| 20260831105504 | 64 | 203 | 0.0 | 0.0 | 0.00 | 0.41 | 0.30 | 95 | 1019.4 |
| 20260831105007 | 64 | 203 | 0.0 | 0.0 | 0.00 | 0.41 | 0.30 | 95 | 1019.4 |
| 20260831104516 | 64 | 203 | 0.0 | 0.0 | 0.00 | 0.41 | 0.30 | 95 | 1019.3 |
| 20260831104007 | 64 | 203 | 0.0 | 0.0 | 0.00 | 0.41 | 0.30 | 95 | 1019.3 |
| 20260831103507 | 64 | 203 | 0.0 | 0.0 | 0.00 | 0.41 | 0.30 | 95 | 1019.3 |
| 20260831103010 | 64 | 203 | 0.0 | 0.0 | 0.00 | 0.41 | 0.30 | 95 | 1019.2 |
| 20260831102507 | 64 | 203 | 0.0 | 0.0 | 0.00 | 0.41 | 0.30 | 95 | 1019.2 |
| 20260831102011 | 64 | 203 | 0.0 | 0.0 | 0.00 | 0.41 | 0.30 | 95 | 1019.1 |
| 20260831101522 | 64 | 203 | 0.0 | 0.0 | 0.00 | 0.41 | 0.30 | 95 | 1019.0 |
| 20260831101014 | 65 | 203 | 0.0 | 0.0 | 0.00 | 0.41 | 0.30 | 95 | 1018.9 |
| 20260831100512 | 65 | 203 | 0.0 | 0.0 | 0.00 | 0.41 | 0.30 | 95 | 1018.8 |
| 20260831100027 | 65 | 203 | 0.0 | 0.0 | 0.00 | 0.41 | 0.30 | 95 | 1018.8 |
| 20260831095503 | 65 | 203 | 0.0 | 0.0 | 0.00 | 0.41 | 0.30 | 95 | 1018.7 |
| 20260831095004 | 65 | 203 | 0.0 | 0.0 | 0.00 | 0.41 | 0.30 | 95 | 1018.6 |
| 20260831094504 | 65 | 203 | 0.0 | 0.0 | 0.00 | 0.41 | 0.30 | 95 | 1018.4 |
| 20260831094003 | 65 | 203 | 0.0 | 0.0 | 0.00 | 0.41 | 0.30 | 95 | 1018.4 |
| 20260831093507 | 65 | 203 | 0.0 | 0.0 | 0.00 | 0.41 | 0.30 | 95 | 1018.4 |
| 20260831093005 | 65 | 203 | 0.0 | 0.0 | 0.00 | 0.41 | 0.30 | 95 | 1018.4 |
| 20260831092508 | 65 | 203 | 0.0 | 0.0 | 0.00 | 0.41 | 0.30 | 95 | 1018.4 |
| 20260831092014 | 65 | 203 | 0.0 | 0.0 | 0.00 | 0.41 | 0.30 | 95 | 1018.3 |
| 20260831091510 | 65 | 203 | 0.0 | 0.0 | 0.00 | 0.41 | 0.30 | 95 | 1018.3 |
| 20260831091010 | 65 | 203 | 0.0 | 0.0 | 0.00 | 0.41 | 0.30 | 95 | 1018.3 |
| 20260831090517 | 66 | 203 | 0.0 | 0.0 | 0.00 | 0.41 | 0.30 | 95 | 1018.2 |
| 20260831090018 | 66 | 203 | 0.0 | 0.0 | 0.00 | 0.41 | 0.30 | 95 | 1018.2 |
| 20260831085513 | 66 | 203 | 0.0 | 0.0 | 0.00 | 0.41 | 0.30 | 95 | 1018.2 |
| 20260831085016 | 66 | 203 | 0.0 | 0.0 | 0.00 | 0.41 | 0.30 | 95 | 1018.2 |
| 20260831084528 | 66 | 203 | 0.0 | 0.0 | 0.00 | 0.41 | 0.30 | 95 | 1018.1 |
| 20260831084003 | 66 | 203 | 0.0 | 0.0 | 0.00 | 0.41 | 0.30 | 95 | 1018.1 |
| 20260831083505 | 66 | 203 | 0.0 | 0.0 | 0.00 | 0.41 | 0.30 | 95 | 1018.1 |
| 20260831083007 | 66 | 203 | 0.0 | 0.0 | 0.00 | 0.41 | 0.30 | 95 | 1018.1 |
| 20260831082505 | 66 | 203 | 0.0 | 0.0 | 0.00 | 0.41 | 0.30 | 95 | 1017.9 |
| 20260831082006 | 66 | 203 | 0.0 | 0.0 | 0.00 | 0.41 | 0.30 | 95 | 1017.9 |
| 20260831081513 | 66 | 203 | 0.0 | 0.0 | 0.00 | 0.41 | 0.30 | 95 | 1017.9 |
| 20260831081006 | 66 | 203 | 0.0 | 0.0 | 0.00 | 0.41 | 0.30 | 95 | 1017.9 |
| 20260831080509 | 67 | 203 | 0.0 | 0.0 | 0.00 | 0.41 | 0.30 | 95 | 1017.9 |
| 20260831080017 | 67 | 203 | 0.0 | 0.0 | 0.00 | 0.41 | 0.30 | 95 | 1017.9 |
| 20260831075512 | 67 | 203 | 0.0 | 0.0 | 0.00 | 0.41 | 0.30 | 95 | 1017.9 |